When you browse on this site, cookies collect data to enhance your experience and personalize the content and advertising you see.
Visit our Privacy Policy to learn more. By continuing to use the site, you agree to this use of cookies and data.
  • In Hungary
  • List of Countries
  • For 7 days
  • Water Temperature
  • Weather Map
  • News
  • Weather Widgets
  • user-avatar
    Login

    Hourly Weather Vasilkovo

    Today, 20 August, Tuesday

    Time Temperature Precipitation Wind Pressure Humidity
    00:00 +18°C° 0 mm 3 mps 748 mmHg 80%
    01:00 +18°C° 0 mm 3 mps 748 mmHg 80%
    02:00 +17°C° 0 mm 2 mps 748 mmHg 79%
    03:00 +17°C° 0.2 mm 2 mps 749 mmHg 81%
    04:00 +17°C° 0.2 mm 2 mps 749 mmHg 83%
    05:00 +16°C° 0.2 mm 2 mps 749 mmHg 86%
    06:00 +18°C° 0 mm 3 mps 749 mmHg 86%
    07:00 +19°C° 0 mm 3 mps 749 mmHg 86%
    08:00 +20°C° 0 mm 3 mps 749 mmHg 86%
    09:00 +22°C° 0 mm 3 mps 749 mmHg 80%
    10:00 +25°C° 0 mm 3 mps 750 mmHg 75%
    11:00 +27°C° 0 mm 3 mps 750 mmHg 69%
    12:00 +27°C° 0 mm 3 mps 750 mmHg 67%
    13:00 +28°C° 0 mm 3 mps 750 mmHg 64%
    14:00 +28°C° 0 mm 3 mps 750 mmHg 62%
    15:00 +28°C° 0 mm 2 mps 750 mmHg 65%
    16:00 +28°C° 0 mm 2 mps 750 mmHg 67%
    17:00 +28°C° 0 mm 1 mps 750 mmHg 70%
    18:00 +26°C° 0.1 mm 1 mps 750 mmHg 75%
    19:00 +24°C° 0.1 mm 1 mps 751 mmHg 80%
    20:00 +23°C° 0.1 mm 1 mps 751 mmHg 84%
    21:00 +22°C° 0.3 mm 1 mps 751 mmHg 87%
    22:00 +21°C° 0.3 mm 1 mps 751 mmHg 89%
    23:00 +21°C° 0.3 mm 1 mps 751 mmHg 91%

    Tomorrow, 21 August, Wednesday

    Time Temperature Precipitation Wind Pressure Humidity
    00:00 +20°C° 0.1 mm 1 mps 751 mmHg 91%
    01:00 +19°C° 0.1 mm 2 mps 751 mmHg 90%
    02:00 +19°C° 0.1 mm 2 mps 751 mmHg 90%
    03:00 +19°C° 0 mm 2 mps 751 mmHg 90%
    04:00 +18°C° 0 mm 2 mps 751 mmHg 89%
    05:00 +18°C° 0 mm 2 mps 751 mmHg 89%
    06:00 +19°C° 0 mm 2 mps 751 mmHg 86%
    07:00 +20°C° 0 mm 2 mps 751 mmHg 82%
    08:00 +23°C° 0 mm 2 mps 751 mmHg 79%
    09:00 +24°C° 0 mm 3 mps 751 mmHg 74%
    10:00 +26°C° 0 mm 3 mps 751 mmHg 69%
    11:00 +27°C° 0 mm 4 mps 751 mmHg 65%
    12:00 +28°C° 0 mm 4 mps 750 mmHg 63%
    13:00 +28°C° 0 mm 4 mps 750 mmHg 61%
    14:00 +29°C° 0 mm 4 mps 750 mmHg 59%
    15:00 +28°C° 0 mm 4 mps 749 mmHg 62%
    16:00 +28°C° 0 mm 4 mps 749 mmHg 66%
    17:00 +28°C° 0 mm 3 mps 749 mmHg 69%
    18:00 +26°C° 0 mm 3 mps 749 mmHg 73%
    19:00 +24°C° 0 mm 3 mps 748 mmHg 76%
    20:00 +22°C° 0 mm 3 mps 748 mmHg 80%
    21:00 +21°C° 0 mm 3 mps 748 mmHg 78%
    22:00 +21°C° 0 mm 3 mps 749 mmHg 77%
    23:00 +20°C° 0 mm 4 mps 749 mmHg 76%

    Day after tomorrow, 22 August, Thursday

    Time Temperature Precipitation Wind Pressure Humidity
    00:00 +19°C° 0 mm 3 mps 749 mmHg 80%
    01:00 +18°C° 0 mm 3 mps 749 mmHg 84%
    02:00 +17°C° 0 mm 3 mps 749 mmHg 89%
    03:00 +17°C° 0.1 mm 4 mps 750 mmHg 89%
    04:00 +16°C° 0.1 mm 5 mps 750 mmHg 90%
    05:00 +16°C° 0.1 mm 5 mps 750 mmHg 90%
    06:00 +16°C° 0.4 mm 5 mps 751 mmHg 89%
    07:00 +16°C° 0.4 mm 6 mps 751 mmHg 89%
    08:00 +15°C° 0.4 mm 6 mps 752 mmHg 88%
    09:00 +16°C° 0.1 mm 6 mps 752 mmHg 85%
    10:00 +16°C° 0.1 mm 6 mps 752 mmHg 83%
    11:00 +17°C° 0.1 mm 5 mps 752 mmHg 80%
    12:00 +19°C° 0 mm 5 mps 752 mmHg 76%
    13:00 +20°C° 0 mm 5 mps 752 mmHg 72%
    14:00 +21°C° 0 mm 5 mps 752 mmHg 67%
    15:00 +21°C° 0 mm 5 mps 752 mmHg 69%
    16:00 +21°C° 0 mm 4 mps 752 mmHg 71%
    17:00 +20°C° 0 mm 4 mps 752 mmHg 73%
    18:00 +19°C° 0 mm 4 mps 752 mmHg 78%
    19:00 +17°C° 0 mm 3 mps 753 mmHg 82%
    20:00 +16°C° 0 mm 3 mps 753 mmHg 86%
    21:00 +14°C° 0 mm 3 mps 753 mmHg 85%
    22:00 +14°C° 0 mm 3 mps 753 mmHg 84%
    23:00 +13°C° 0 mm 3 mps 754 mmHg 83%

    23 August, Friday

    Time Temperature Precipitation Wind Pressure Humidity
    00:00 +13°C° 0 mm 3 mps 754 mmHg 84%
    01:00 +12°C° 0 mm 3 mps 754 mmHg 84%
    02:00 +11°C° 0 mm 3 mps 754 mmHg 85%
    03:00 +11°C° 0 mm 3 mps 754 mmHg 86%
    04:00 +11°C° 0 mm 3 mps 754 mmHg 87%
    05:00 +10°C° 0 mm 3 mps 754 mmHg 88%
    06:00 +12°C° 0 mm 3 mps 754 mmHg 84%
    07:00 +14°C° 0 mm 3 mps 754 mmHg 80%
    08:00 +16°C° 0 mm 3 mps 754 mmHg 76%
    09:00 +18°C° 0 mm 3 mps 754 mmHg 71%
    10:00 +19°C° 0 mm 3 mps 754 mmHg 66%
    11:00 +21°C° 0 mm 3 mps 754 mmHg 60%
    12:00 +21°C° 0 mm 3 mps 754 mmHg 59%
    13:00 +22°C° 0 mm 3 mps 754 mmHg 58%
    14:00 +22°C° 0 mm 3 mps 754 mmHg 57%
    15:00 +22°C° 0 mm 3 mps 754 mmHg 61%
    16:00 +21°C° 0 mm 3 mps 754 mmHg 65%
    17:00 +21°C° 0 mm 2 mps 754 mmHg 68%
    18:00 +19°C° 0 mm 2 mps 754 mmHg 73%
    19:00 +17°C° 0 mm 2 mps 754 mmHg 78%
    20:00 +16°C° 0 mm 2 mps 754 mmHg 83%
    21:00 +15°C° 0 mm 2 mps 754 mmHg 84%
    22:00 +15°C° 0 mm 2 mps 754 mmHg 85%
    23:00 +14°C° 0 mm 2 mps 754 mmHg 86%

    24 August, Saturday

    Time Temperature Precipitation Wind Pressure Humidity
    00:00 +14°C° 0 mm 2 mps 754 mmHg 87%
    01:00 +13°C° 0 mm 1 mps 754 mmHg 88%
    02:00 +13°C° 0 mm 1 mps 754 mmHg 89%
    03:00 +13°C° 0 mm 1 mps 754 mmHg 89%
    04:00 +13°C° 0 mm 1 mps 754 mmHg 90%
    05:00 +12°C° 0 mm 1 mps 754 mmHg 91%
    06:00 +14°C° 0 mm 1 mps 754 mmHg 86%
    07:00 +16°C° 0 mm 1 mps 755 mmHg 81%
    08:00 +19°C° 0 mm 1 mps 755 mmHg 76%
    09:00 +20°C° 0 mm 1 mps 755 mmHg 70%
    10:00 +21°C° 0 mm 1 mps 755 mmHg 65%
    11:00 +23°C° 0 mm 1 mps 755 mmHg 60%
    12:00 +23°C° 0 mm 2 mps 755 mmHg 58%
    13:00 +23°C° 0 mm 2 mps 754 mmHg 55%
    14:00 +24°C° 0 mm 2 mps 754 mmHg 53%
    15:00 +24°C° 0 mm 2 mps 754 mmHg 57%
    16:00 +24°C° 0 mm 1 mps 754 mmHg 60%
    17:00 +23°C° 0 mm 1 mps 753 mmHg 63%
    18:00 +21°C° 0 mm 1 mps 753 mmHg 69%
    19:00 +19°C° 0 mm 1 mps 753 mmHg 75%
    20:00 +15°C° 0 mm 0 mps 753 mmHg 81%
    21:00 +15°C° 0 mm 0 mps 753 mmHg 81%
    22:00 +15°C° 0 mm 0 mps 753 mmHg 82%
    23:00 +14°C° 0 mm 0 mps 753 mmHg 83%

    25 August, Sunday

    Time Temperature Precipitation Wind Pressure Humidity
    00:00 +15°C° 0 mm 1 mps 753 mmHg 84%
    01:00 +14°C° 0 mm 1 mps 753 mmHg 85%
    02:00 +14°C° 0 mm 1 mps 753 mmHg 85%
    03:00 +14°C° 0 mm 1 mps 753 mmHg 86%
    04:00 +14°C° 0 mm 1 mps 753 mmHg 87%
    05:00 +13°C° 0 mm 1 mps 753 mmHg 87%
    06:00 +15°C° 0 mm 1 mps 753 mmHg 82%
    07:00 +18°C° 0 mm 1 mps 753 mmHg 78%
    08:00 +19°C° 0 mm 1 mps 753 mmHg 73%
    09:00 +21°C° 0 mm 1 mps 753 mmHg 68%
    10:00 +22°C° 0 mm 1 mps 753 mmHg 64%
    11:00 +24°C° 0 mm 1 mps 753 mmHg 60%
    12:00 +24°C° 0 mm 1 mps 753 mmHg 57%
    13:00 +25°C° 0 mm 1 mps 752 mmHg 55%
    14:00 +25°C° 0 mm 1 mps 752 mmHg 52%
    15:00 +25°C° 0 mm 1 mps 752 mmHg 55%
    16:00 +25°C° 0 mm 1 mps 752 mmHg 58%
    17:00 +23°C° 0 mm 0 mps 751 mmHg 61%
    18:00 +21°C° 0 mm 0 mps 751 mmHg 66%
    19:00 +21°C° 0 mm 1 mps 751 mmHg 71%
    20:00 +18°C° 0 mm 1 mps 751 mmHg 76%
    21:00 +18°C° 0 mm 1 mps 751 mmHg 78%
    22:00 +16°C° 0 mm 1 mps 751 mmHg 81%
    23:00 +16°C° 0 mm 1 mps 752 mmHg 83%
    Show more